Telfer, Australia

3:50 PM AWST on July 25, 2017 (GMT +0800)
Telfer

Weather History for YTEF - October, 2011

Change the Weather History Date:

Wednesday, October 12, 2011

  Actual Average Record
Temperature  
Mean Temperature 85 °F -  
Max Temperature 99 °F - - ()
Min Temperature 71 °F - - ()
Cooling Degree Days 20    
Growing Degree Days 35 (Base 50)    
Moisture  
Dew Point 33 °F    
Average Humidity 14    
Maximum Humidity 31    
Minimum Humidity 4    
Precipitation  
Precipitation 0.00 in - - ()
Sea Level Pressure  
Sea Level Pressure 29.81 in    
Wind  
Wind Speed 11 mph ()    
Max Wind Speed 18 mph    
Max Gust Speed -    
T = Trace of Precipitation, MM = Missing Value Source: Averaged Metar Reports

Daily Weather History Graph

Daily Weather History Graph

Search for Another Location

Airport or City:

Trip Planner

Search our weather history database for the weather conditions in past years. The results will help you decide how hot, cold, wet, or windy it might be!

Date:

Astronomy

Oct. 12, 2011 Rise Set
Actual Time 5:22 AM AWST 5:53 PM AWST
Civil Twilight 5:00 AM AWST 6:15 PM AWST
Nautical Twilight 4:33 AM AWST 6:42 PM AWST
Astronomical Twilight 4:07 AM AWST 7:08 PM AWST
Moon 6:05 PM AWST (10/12) 5:05 AM AWST (10/12)
Length of Visible Light 13h 15m
Length of Day
12h 30m
Full, 100% of the Moon is Illuminated
Oct 12
Full
Oct 20
Last Quarter
Oct 27
New
Nov 3
First Quarter
Nov 11
Full

Hourly Weather History & Observations

Time (AWST) Temp. Dew Point Humidity Pressure Visibility Wind Dir Wind Speed Gust Speed Precip Events Conditions
12:00 AM 82 °F 38 °F 12% 29.81 in - SSW 11.5 mph - -  
12:00 AM 82.4 °F 37.4 °F 20% 29.86 in - SSW 11.5 mph - N/A   Unknown
1:00 AM 78.8 °F 35.6 °F 21% 29.86 in - SSW 8.1 mph - N/A   Unknown
2:00 AM 78 °F 35 °F 12% 29.80 in - SSW 13.8 mph - -  
2:00 AM 77.0 °F 35.6 °F 22% 29.83 in - SSW 13.8 mph - N/A   Unknown
3:00 AM 76 °F 34 °F 12% 29.80 in - SSW 12.7 mph - -  
3:00 AM 75.2 °F 33.8 °F 22% 29.83 in - SSW 12.7 mph - N/A   Unknown
4:00 AM 73.4 °F 35.6 °F 25% 29.83 in - South 11.5 mph - N/A   Unknown
5:00 AM 73 °F 37 °F 17% 29.81 in - South 12.7 mph - -  
5:00 AM 73.4 °F 37.4 °F 27% 29.86 in - South 12.7 mph - N/A   Unknown
6:00 AM 72 °F 38 °F 19% 29.82 in - South 10.4 mph - -  
6:00 AM 71.6 °F 39.2 °F 31% 29.86 in - South 10.4 mph - N/A   Unknown
7:00 AM 77.0 °F 41.0 °F 28% 29.89 in - South 12.7 mph - N/A   Unknown
8:00 AM 80.6 °F 41.0 °F 24% 29.89 in - SSE 13.8 mph - N/A   Unknown
9:00 AM 85 °F 40 °F 12% 29.86 in - SE 13.8 mph - -  
9:00 AM 86.0 °F 39.2 °F 19% 29.89 in - SE 13.8 mph - N/A   Unknown
10:00 AM 87.8 °F 37.4 °F 17% 29.89 in - SSE 10.4 mph - N/A   Unknown
11:00 AM 90 °F 36 °F 8% 29.82 in - SSE 8.1 mph - -  
11:00 AM 91.4 °F 37.4 °F 15% 29.86 in - SSE 8.1 mph - N/A   Unknown
12:00 PM 92 °F 34 °F 6% 29.79 in - SSW 6.9 mph - -  
12:00 PM 93.2 °F 33.8 °F 12% 29.83 in - SSW 6.9 mph - N/A   Unknown
1:00 PM 95.0 °F 33.8 °F 12% 29.80 in - West 6.9 mph - N/A   Unknown
2:00 PM 98 °F 32 °F 5% 29.73 in - WSW 13.8 mph - -  
2:00 PM 98.6 °F 32.0 °F 10% 29.77 in - WSW 13.8 mph - N/A   Unknown
3:00 PM 99 °F 33 °F 4% 29.72 in - WNW 16.1 mph - -  
3:00 PM 98.6 °F 32.0 °F 10% 29.77 in - WNW 16.1 mph - N/A   Unknown
4:00 PM 98.6 °F 30.2 °F 9% 29.74 in - West 18.4 mph - N/A   Unknown
5:00 PM 97 °F 31 °F 4% 29.71 in - West 17.3 mph - -  
5:00 PM 96.8 °F 30.2 °F 10% 29.77 in - West 17.3 mph - N/A   Unknown
6:00 PM 94 °F 29 °F 4% 29.73 in - WSW 12.7 mph - -  
6:00 PM 93.2 °F 28.4 °F 10% 29.77 in - WSW 12.7 mph - N/A   Unknown
7:00 PM 91.4 °F 28.4 °F 10% 29.80 in - West 10.4 mph - N/A   Unknown
8:00 PM 88 °F 27 °F 5% 29.76 in - West 9.2 mph - -  
8:00 PM 87.8 °F 26.6 °F 11% 29.80 in - West 9.2 mph - N/A   Unknown
9:00 PM 87 °F 26 °F 5% 29.78 in - West 10.4 mph - -  
9:00 PM 86.0 °F 26.6 °F 12% 29.83 in - West 10.4 mph - N/A   Unknown
10:00 PM 86.0 °F 24.8 °F 11% 29.83 in - West 10.4 mph - N/A   Unknown
11:00 PM 85 °F 25 °F 5% 29.76 in - West 10.4 mph - -